Regional Weather Roundup
Issued by NWS Northern Indiana

Home | Current Version | Previous Version | Graphics & Text | Print | Product List | Glossary On
Versions: 1 2 3 4 5 6 7 8 9 10 11 12 13 14 15 16 17 18 19 20 21 22 23 24 25 26 27 28 29 30 31 32 33 34 35 36 37 38 39 40 41 42 43 44 45 46 47 48 49 50
000
ASUS43 KIWX 181610
RWRIWX

KIWX WEATHER ROUNDUP
NATIONAL WEATHER SERVICE NORTHERN INDIANA
1200 PM EDT FRI APR 18 2014

NOTE: "FAIR" INDICATES FEW OR NO CLOUDS BELOW 12,000 FEET WITH NO
SIGNIFICANT WEATHER AND/OR OBSTRUCTIONS TO VISIBILITY.

* THESE STATIONS ARE NOT UNDER NWS QUALITY CONTROL. THEY ALSO MAY NOT
  REPORT WEATHER SUCH AS PRECIPITATION OR FOG.

INZ001>027-181700-
NORTHERN INDIANA

CITY           SKY/WX    TMP DP  RH WIND       PRES   REMARKS
GARY*          MOSUNNY   46  36  66 N14       30.36R
VALPARAISO     SUNNY     52  38  58 NW8       30.32R
MICHIGAN CITY* SUNNY     45  34  65 N7        30.34R
LAPORTE*       SUNNY     53  38  57 NW8       30.32R
SOUTH BEND     MOSUNNY   58  40  51 W7        30.31S
GOSHEN         SUNNY     60  42  51 W14       30.29R
MONTICELLO*    SUNNY     59  42  54 W6        30.30R
LOGANSPORT*    SUNNY     59  41  51 W3        30.30S
ROCHESTER*     SUNNY     63  41  45 W7        30.30S
WARSAW*        SUNNY     61  41  48 W8        30.29S
ANGOLA*        PTSUNNY   59  45  58 W10       30.27S
FORT WAYNE     MOSUNNY   64  39  39 SW8       30.29S
HUNTINGTON*    FAIR      61  41  47 SW6       30.28S
PERU/GRISSOM   SUNNY     61  44  53 NW2       30.29S
MARION*        CLOUDY    62  37  40 CALM      30.30S

$$
INZ028>050-181700-
CENTRAL INDIANA

CITY           SKY/WX    TMP DP  RH WIND       PRES   REMARKS
LAFAYETTE      SUNNY     61  41  47 W5        30.30S
KOKOMO*        PTSUNNY   63  41  45 SW5       30.29S
MUNCIE*        MOSUNNY   63  38  39 W5        30.29S
INDIANAPOLIS   MOSUNNY   63  40  42 CALM      30.29S

$$
MIZ043>046-050>051-056>058-064>065-071>073-077>080-181700-
SOUTHWEST LOWER MICHIGAN

CITY           SKY/WX    TMP DP  RH WIND       PRES   REMARKS
BATTLE CREEK   MOSUNNY   56  39  53 N6        30.29R
BENTON HARBOR  SUNNY     45  37  73 VRB7      30.32R
COLDWATER*     PTSUNNY   58  43  57 NW6       30.28S
HILLSDALE*     MOSUNNY   58  43  57 CALM      30.27S
HOLLAND        PTSUNNY   53  39  59 W8        30.31R
GRAND RAPIDS   PTSUNNY   58  38  47 NW10      30.29R
KALAMAZOO      MOSUNNY   56  38  50 W6        30.29R
STURGIS*       SUNNY     55  45  67 CALM      30.28S
THREE RIVERS*  FAIR      60  40  47 NW8       30.29S

$$
OHZ001>008-015>018-024>025-181700-
NORTHWEST OHIO

CITY           SKY/WX    TMP DP  RH WIND       PRES   REMARKS
WAUSEON*       CLOUDY    61  41  48 W10       30.28R
DEFIANCE       CLOUDY    62  40  44 VRB7      30.28S
FINDLAY        SUNNY     63  40  42 NE3       30.28S
TOLEDO EXPRESS CLOUDY    59  40  49 W6        30.27S
TOLEDO METCALF CLOUDY    60  40  47 W6        30.28F
LIMA           SUNNY     63  40  42 SE5       30.29S

$$
&&



USA.gov is the U.S. government's official web portal to all federal, state and local government web resources and services.